This is the latest recevied weather packets stored in our database for station/object IZ1DME-3. If no packets are shown the sender has not sent any weather packets the latest 10 day(s).
| Time | Temp. | Humidity | Pressure | Rain* | Wind** | Luminosity | Snow |
|---|---|---|---|---|---|---|---|
| 1777299275 | 25° C | 37% | 1016 hPa | - | - | - | - |
| 1777297775 | 25° C | 34% | 1016.3 hPa | - | - | - | - |
| 1777296275 | 25° C | 36% | 1016.8 hPa | - | - | - | - |
| 1777294774 | 24.44° C | 37% | 1017.1 hPa | - | - | - | - |
| 1777293275 | 24.44° C | 40% | 1017.4 hPa | - | - | - | - |
| 1777291775 | 23.89° C | 44% | 1017.8 hPa | - | - | - | - |
| 1777290275 | 23.33° C | 44% | 1018.2 hPa | - | - | - | - |
| 1777288774 | 22.78° C | 46% | 1018.6 hPa | - | - | - | - |
| 1777287276 | 22.22° C | 52% | 1018.9 hPa | - | - | - | - |
| 1777285775 | 21.11° C | 52% | 1019.3 hPa | - | - | - | - |
| 1777284275 | 20.56° C | 55% | 1019.6 hPa | - | - | - | - |
| 1777282775 | 19.44° C | 57% | 1019.9 hPa | - | - | - | - |
| 1777281276 | 18.89° C | 58% | 1020.3 hPa | - | - | - | - |
| 1777279775 | 18.33° C | 59% | 1020.6 hPa | - | - | - | - |
| 1777278275 | 17.78° C | 60% | 1020.7 hPa | - | - | - | - |
| 1777276775 | 17.22° C | 64% | 1020.7 hPa | - | - | - | - |
| 1777275275 | 17.22° C | 63% | 1020.9 hPa | - | - | - | - |
| 1777273775 | 16.11° C | 67% | 1021 hPa | - | - | - | - |
| 1777272275 | 15.56° C | 70% | 1021.2 hPa | - | - | - | - |
| 1777270775 | 15° C | 74% | 1021.3 hPa | - | - | - | - |
| 1777269275 | 14.44° C | 76% | 1021.3 hPa | - | - | - | - |
| 1777267775 | 13.33° C | 75% | 1021.2 hPa | - | - | - | - |
| 1777266275 | 13.33° C | 75% | 1021 hPa | - | - | - | - |
| 1777264775 | 13.33° C | 74% | 1020.8 hPa | - | - | - | - |
| 1777263275 | 13.33° C | 73% | 1020.7 hPa | - | - | - | - |
* Rain since midnight (hover to see other rain measurements)
** Current wind speed in m/s (hover to see current wind gust speed)